TimeCST,TemperatureF,Dew PointF,Humidity,Sea Level PressureIn,VisibilityMPH,Wind Direction,Wind SpeedMPH,Gust SpeedMPH,PrecipitationIn,Events,Conditions,WindDirDegrees,DateUTC
12:15 AM,50.0,46.4,87,29.87,10.0,SW,4.6,-,N/A,,Overcast,220,2013-01-11 06:15:00
12:35 AM,50.0,44.6,82,29.87,10.0,SW,8.1,-,N/A,,Overcast,220,2013-01-11 06:35:00
12:55 AM,48.2,44.6,87,29.87,10.0,SW,6.9,-,N/A,,Overcast,230,2013-01-11 06:55:00
1:15 AM,48.2,44.6,87,29.88,10.0,SW,6.9,-,N/A,,Scattered Clouds,230,2013-01-11 07:15:00
1:35 AM,48.2,44.6,87,29.89,10.0,SW,8.1,-,N/A,,Mostly Cloudy,230,2013-01-11 07:35:00
1:55 AM,48.2,44.6,87,29.88,10.0,SW,8.1,-,N/A,,Overcast,220,2013-01-11 07:55:00
2:15 AM,48.2,44.6,87,29.90,10.0,SW,8.1,-,N/A,,Overcast,220,2013-01-11 08:15:00
2:35 AM,48.2,44.6,87,29.89,10.0,SW,6.9,-,N/A,,Overcast,220,2013-01-11 08:35:00
2:55 AM,48.2,44.6,87,29.90,10.0,SW,8.1,-,N/A,,Overcast,230,2013-01-11 08:55:00
3:15 AM,48.2,44.6,87,29.89,10.0,SW,8.1,-,N/A,,Overcast,230,2013-01-11 09:15:00
3:35 AM,48.2,44.6,87,29.89,10.0,SW,6.9,-,N/A,,Overcast,220,2013-01-11 09:35:00
3:55 AM,48.2,44.6,87,29.89,10.0,SW,5.8,-,N/A,,Overcast,220,2013-01-11 09:55:00
4:15 AM,48.2,44.6,87,29.87,10.0,SSW,4.6,-,N/A,,Mostly Cloudy,210,2013-01-11 10:15:00
4:55 AM,46.4,42.8,87,29.86,10.0,SSW,3.5,-,N/A,,Clear,210,2013-01-11 10:55:00
5:15 AM,46.4,42.8,87,29.87,10.0,SW,4.6,-,N/A,,Clear,220,2013-01-11 11:15:00
5:35 AM,46.4,42.8,87,29.87,10.0,SSW,5.8,-,N/A,,Clear,210,2013-01-11 11:35:00
6:50 AM,42.8,41.0,93,29.88,10.0,SE,5.8,-,N/A,,Mostly Cloudy,140,2013-01-11 12:50:00
7:55 AM,44.6,42.8,93,29.88,10.0,SE,8.1,-,N/A,,Mostly Cloudy,140,2013-01-11 13:55:00
8:45 AM,48.2,44.6,87,29.88,10.0,South,6.9,-,N/A,,Mostly Cloudy,170,2013-01-11 14:45:00
9:50 AM,51.8,44.6,76,29.89,10.0,SSE,8.1,-,N/A,,Mostly Cloudy,150,2013-01-11 15:50:00
10:45 AM,55.4,44.6,67,29.88,10.0,SSE,8.1,-,N/A,,Mostly Cloudy,160,2013-01-11 16:45:00
11:45 AM,59.0,42.8,55,29.85,10.0,SSW,6.9,18.4,N/A,,Mostly Cloudy,210,2013-01-11 17:45:00
12:57 PM,62.6,41.0,45,29.82,10.0,SSW,10.4,19.6,N/A,,Mostly Cloudy,200,2013-01-11 18:57:00
2:47 PM,66.2,39.2,37,29.80,10.0,South,13.8,23.0,N/A,,Mostly Cloudy,190,2013-01-11 20:47:00
3:45 PM,66.2,41.0,40,29.79,10.0,SSE,11.5,-,N/A,,Mostly Cloudy,150,2013-01-11 21:45:00
4:45 PM,60.8,42.8,52,29.80,10.0,SSE,11.5,16.1,N/A,,Mostly Cloudy,160,2013-01-11 22:45:00
5:53 PM,57.2,42.8,59,29.80,10.0,SSE,12.7,-,N/A,,Mostly Cloudy,150,2013-01-11 23:53:00
6:51 PM,57.2,41.0,55,29.81,10.0,SSE,9.2,-,N/A,,Scattered Clouds,160,2013-01-12 00:51:00
7:53 PM,55.4,42.8,63,29.82,10.0,SSE,12.7,20.7,N/A,,Scattered Clouds,160,2013-01-12 01:53:00
7:55 PM,55.4,42.8,63,29.82,10.0,SSE,11.5,17.3,N/A,,Clear,160,2013-01-12 01:55:00
8:15 PM,55.4,42.8,63,29.82,10.0,South,10.4,-,N/A,,Clear,170,2013-01-12 02:15:00
8:35 PM,55.4,42.8,63,29.83,10.0,South,9.2,-,N/A,,Clear,170,2013-01-12 02:35:00
8:50 PM,55.4,42.8,63,29.83,10.0,South,9.2,16.1,N/A,,Scattered Clouds,170,2013-01-12 02:50:00
8:55 PM,55.4,42.8,63,29.83,10.0,SSE,9.2,16.1,N/A,,Clear,160,2013-01-12 02:55:00
9:15 PM,55.4,44.6,67,29.83,10.0,SSE,9.2,-,N/A,,Clear,160,2013-01-12 03:15:00
9:35 PM,55.4,44.6,67,29.84,10.0,SSE,6.9,-,N/A,,Clear,160,2013-01-12 03:35:00
9:55 PM,55.4,44.6,67,29.84,10.0,SSE,8.1,-,N/A,,Clear,160,2013-01-12 03:55:00
10:15 PM,55.4,44.6,67,29.84,10.0,SSE,9.2,-,N/A,,Clear,160,2013-01-12 04:15:00
10:35 PM,55.4,44.6,67,29.85,10.0,SSE,5.8,-,N/A,,Clear,160,2013-01-12 04:35:00
11:15 PM,55.4,46.4,72,29.85,10.0,South,5.8,-,N/A,,Clear,170,2013-01-12 05:15:00
11:35 PM,53.6,46.4,77,29.85,10.0,SSE,4.6,-,N/A,,Clear,160,2013-01-12 05:35:00
11:55 PM,53.6,46.4,77,29.85,10.0,South,5.8,-,N/A,,Clear,170,2013-01-12 05:55:00